SCP
1 3 4 5 5 6 6 7 7 8 8 10 7 8 11 10 10 8 7 6 5 4
0 1 3 4 5 4 5 5 3 4 1 0 3 6 10 9 9 8 8 6 5 4
0 1 1 2 3 3 3 2 0 1 0 0 0 2 5 7 7 6 6 4 3 3
0 0 1 1 2 2 0 0 0 0 0 0 0 2 2 1 4 4 3 3 3 3
0 0 0 0 1 0 0 0 0 0 0 0 0 0 1 0 1 2 3 2 2 2
0 0 0 1 1 0 0 0 0 0 0 0 -0 -1 -0 -0 0 1 3 3 2 1
0 0 0 0 0 0 0 0 0 0 0 0 0 0 0 1 2 2 2 2 2 2
0 0 0 0 0 0 0 0 0 -0 0 1 0 1 1 2 3 3 3 2 1 1
0 0 0 0 0 0 0 2 1 0 1 1 1 1 1 3 3 3 2 2 0 0
0 0 0 0 0 0 0 0 1 1 2 2 2 1 1 2 3 2 2 1 1 0
0 0 0 0 0 0 0 0 0 1 3 4 3 0 0 1 3 2 1 1 1 0
0 0 0 -0 0 0 0 0 1 0 1 2 0 0 0 1 2 2 1 1 0 0
0 0 0 0 0 0 0 0 1 2 1 1 1 0 0 1 1 1 1 1 0 0
0 0 -0 0 0 0 0 0 0 0 1 1 2 0 0 0 0 1 0 0 0 0
Wind_Speed_500mb
72 63 74 78 100 93 93 108 104 102 108 109 113 102 104 89 81 74 70 65 63 62
68 66 64 75 83 103 97 102 96 100 101 71 83 94 90 80 70 67 62 60 63 67
64 61 62 70 82 88 96 92 70 58 109 129 128 71 72 71 65 61 60 60 63 63
63 64 59 53 66 71 78 76 39 42 32 87 46 59 63 59 56 51 51 54 52 51
59 63 64 67 52 60 71 83 57 44 38 35 60 42 39 55 49 51 55 50 52 54
58 63 58 50 53 49 52 57 60 46 24 11 70 79 71 67 61 53 54 51 51 47
63 59 63 57 53 46 38 33 38 41 49 93 93 73 69 59 50 41 38 39 44 33
54 62 65 59 57 61 45 54 42 46 58 57 58 63 57 52 44 43 40 34 35 38
75 64 59 67 62 53 54 41 46 63 61 63 65 61 61 50 48 49 51 47 39 21
99 93 91 64 68 61 57 57 49 61 63 62 60 58 58 59 56 54 42 34 30 24
91 84 92 87 58 74 64 59 51 38 60 58 63 56 64 68 65 55 43 39 34 21
74 92 98 95 73 63 81 60 40 69 32 55 48 51 69 69 66 58 49 38 24 21
80 82 90 83 73 70 63 76 51 49 58 24 45 59 65 74 66 55 48 35 29 29
69 77 75 94 79 54 63 59 60 69 51 60 41 68 72 67 63 61 49 39 34 30
Wind_Direction_500mb
281 278 266 257 250 245 242 240 239 235 234 229 222 213 213 213 217 223 225 226 219 226
304 277 277 262 261 250 245 248 248 242 237 247 224 215 207 210 209 212 215 219 222 228
307 301 292 271 267 263 253 248 252 253 254 243 229 215 203 201 206 213 214 221 222 228
309 300 296 294 271 270 254 251 260 257 220 214 238 224 216 209 204 211 219 225 235 240
299 308 300 291 291 280 266 257 263 264 247 196 220 232 213 229 217 215 222 220 226 228
301 298 304 300 289 282 285 270 250 258 266 261 208 217 215 219 213 215 217 222 230 234
299 300 299 302 280 290 267 221 211 202 190 218 208 203 209 207 206 213 220 231 225 220
296 298 297 290 303 268 266 205 202 204 204 200 196 202 198 195 195 196 198 184 181 179
287 278 285 289 279 294 256 235 214 212 209 201 195 191 188 185 174 165 173 180 187 180
279 282 273 280 273 268 272 257 222 216 204 203 193 193 184 177 178 180 173 172 184 167
275 267 265 259 278 253 254 264 245 227 211 203 196 195 186 183 182 182 192 195 187 181
262 256 257 265 270 262 250 244 234 256 173 206 199 201 191 186 180 184 193 198 193 212
270 266 262 259 263 259 252 244 231 224 217 209 195 202 196 195 187 189 191 203 214 228
275 262 265 251 249 269 256 247 236 232 229 214 204 204 204 200 195 191 195 208 222 232
Wind_Speed_850mb
72 63 74 78 100 93 93 108 104 102 108 109 113 102 104 89 81 74 70 65 63 62
68 66 64 75 83 103 97 102 96 100 101 71 83 94 90 80 70 67 62 60 63 67
64 61 62 70 82 88 96 92 70 58 109 129 128 71 72 71 65 61 60 60 63 63
63 64 59 53 66 71 78 76 39 42 32 87 46 59 63 59 56 51 51 54 52 51
59 63 64 67 52 60 71 83 57 44 38 35 60 42 39 55 49 51 55 50 52 54
58 63 58 50 53 49 52 57 60 46 24 11 70 79 71 67 61 53 54 51 51 47
63 59 63 57 53 46 38 33 38 41 49 93 93 73 69 59 50 41 38 39 44 33
54 62 65 59 57 61 45 54 42 46 58 57 58 63 57 52 44 43 40 34 35 38
75 64 59 67 62 53 54 41 46 63 61 63 65 61 61 50 48 49 51 47 39 21
99 93 91 64 68 61 57 57 49 61 63 62 60 58 58 59 56 54 42 34 30 24
91 84 92 87 58 74 64 59 51 38 60 58 63 56 64 68 65 55 43 39 34 21
74 92 98 95 73 63 81 60 40 69 32 55 48 51 69 69 66 58 49 38 24 21
80 82 90 83 73 70 63 76 51 49 58 24 45 59 65 74 66 55 48 35 29 29
69 77 75 94 79 54 63 59 60 69 51 60 41 68 72 67 63 61 49 39 34 30
Wind_Direction_850mb
281 278 266 257 250 245 242 240 239 235 234 229 222 213 213 213 217 223 225 226 219 226
304 277 277 262 261 250 245 248 248 242 237 247 224 215 207 210 209 212 215 219 222 228
307 301 292 271 267 263 253 248 252 253 254 243 229 215 203 201 206 213 214 221 222 228
309 300 296 294 271 270 254 251 260 257 220 214 238 224 216 209 204 211 219 225 235 240
299 308 300 291 291 280 266 257 263 264 247 196 220 232 213 229 217 215 222 220 226 228
301 298 304 300 289 282 285 270 250 258 266 261 208 217 215 219 213 215 217 222 230 234
299 300 299 302 280 290 267 221 211 202 190 218 208 203 209 207 206 213 220 231 225 220
296 298 297 290 303 268 266 205 202 204 204 200 196 202 198 195 195 196 198 184 181 179
287 278 285 289 279 294 256 235 214 212 209 201 195 191 188 185 174 165 173 180 187 180
279 282 273 280 273 268 272 257 222 216 204 203 193 193 184 177 178 180 173 172 184 167
275 267 265 259 278 253 254 264 245 227 211 203 196 195 186 183 182 182 192 195 187 181
262 256 257 265 270 262 250 244 234 256 173 206 199 201 191 186 180 184 193 198 193 212
270 266 262 259 263 259 252 244 231 224 217 209 195 202 196 195 187 189 191 203 214 228
275 262 265 251 249 269 256 247 236 232 229 214 204 204 204 200 195 191 195 208 222 232